Bologna, Italy

6:26 AM CEST on May 27, 2018 (GMT +0200)
Borgo Panigale

Weather History for LIPE - February, 2014

Change the Weather History Date:

Tuesday, February 18, 2014

  Actual Average Record
Temperature  
Mean Temperature 46 °F -  
Max Temperature 53 °F 52 °F 62 °F (2006)
Min Temperature 38 °F 37 °F 24 °F (2008)
Degree Days  
Heating Degree Days 20    
Moisture  
Dew Point 43 °F    
Average Humidity 87    
Maximum Humidity 100    
Minimum Humidity 71    
Precipitation  
Precipitation 0.00 in 0.07 in - ()
Sea Level Pressure  
Sea Level Pressure 30.12 in    
Wind  
Wind Speed 3 mph ()    
Max Wind Speed 7 mph    
Max Gust Speed -    
Visibility 4.5 miles    
Events      
Averages and records for this station are not official NWS values.
T = Trace of Precipitation, MM = Missing Value Source: Averaged Metar Reports

Daily Weather History Graph

Daily Weather History Graph

Search for Another Location

Airport or City:

Astronomy

Feb. 18, 2014 Rise Set
Actual Time 7:10 AM CET 5:47 PM CET
Civil Twilight 6:40 AM CET 6:17 PM CET
Nautical Twilight 6:06 AM CET 6:51 PM CET
Astronomical Twilight 5:33 AM CET 7:24 PM CET
Moon 9:34 PM CET (2/18) 8:24 AM CET (2/18)
Length of Visible Light 11h 36m
Length of Day
10h 36m
Waning Gibbous, 89% of the Moon is Illuminated
Feb 18
Waning Gibbous
Feb 22
Last Quarter
Mar 1
New
Mar 8
First Quarter
Mar 16
Full

Hourly Weather History & Observations

Time (CET) Temp. Windchill Dew Point Humidity Pressure Visibility Wind Dir Wind Speed Gust Speed Precip Events Conditions
12:20 AM 41.0 °F 39.0 °F 39.2 °F 93% 30.09 in - WSW 3.5 mph - N/A   Clear
12:50 AM 41.0 °F - 39.2 °F 93% 30.12 in - WSW 2.3 mph - N/A   Clear
1:20 AM 41.0 °F 39.0 °F 39.2 °F 93% 30.12 in - West 3.5 mph - N/A   Clear
1:50 AM 41.0 °F 39.0 °F 39.2 °F 93% 30.12 in - SW 3.5 mph - N/A   Clear
2:20 AM 41.0 °F 39.0 °F 39.2 °F 93% 30.12 in - WSW 3.5 mph - N/A   Clear
2:50 AM 39.2 °F - 37.4 °F 93% 30.12 in - SSW 2.3 mph - N/A   Clear
3:20 AM 39.2 °F 35.9 °F 39.2 °F 100% 30.12 in - SSW 4.6 mph - N/A   Clear
3:50 AM 39.2 °F 37.0 °F 37.4 °F 93% 30.12 in - SSW 3.5 mph - N/A   Clear
4:00 AM 39 °F - 38 °F 93% 30.12 in 9 mi SSW 4.6 mph - -  
4:20 AM 41.0 °F 39.0 °F 39.2 °F 93% 30.12 in - SSW 3.5 mph - N/A   Clear
4:50 AM 41.0 °F 38.0 °F 39.2 °F 93% 30.12 in - SSW 4.6 mph - N/A   Clear
5:20 AM 42.8 °F 41.1 °F 39.2 °F 87% 30.12 in 6.2 mi WSW 3.5 mph - N/A   Partly Cloudy
5:50 AM 42.8 °F - 41.0 °F 93% 30.12 in 6.2 mi Variable 1.2 mph - N/A   Scattered Clouds
6:20 AM 42.8 °F - 41.0 °F 93% 30.12 in 6.2 mi WSW 2.3 mph - N/A   Scattered Clouds
6:50 AM 44.6 °F 43.1 °F 41.0 °F 87% 30.12 in 6.2 mi SW 3.5 mph - N/A   Mostly Cloudy
7:00 AM 44 °F - 41 °F 86% 30.12 in 9 mi WSW 2.3 mph - -   Mostly Cloudy
7:20 AM 42.8 °F - 41.0 °F 93% 30.12 in 6.2 mi Variable 2.3 mph - N/A   Mostly Cloudy
7:50 AM 42.8 °F - 41.0 °F 93% 30.15 in 6.2 mi North 2.3 mph - N/A   Mostly Cloudy
8:20 AM 44.6 °F - 41.0 °F 87% 30.15 in 4.3 mi Variable 2.3 mph - N/A   Mostly Cloudy
8:50 AM 42.8 °F - 39.2 °F 87% 30.15 in 4.3 mi Variable 2.3 mph - N/A   Mostly Cloudy
9:20 AM 44.6 °F - 41.0 °F 87% 30.15 in 4.3 mi Calm Calm - N/A   Mostly Cloudy
9:50 AM 46.4 °F - 41.0 °F 81% 30.15 in 4.3 mi Variable 1.2 mph - N/A   Mostly Cloudy
10:00 AM 46 °F - 42 °F 80% 30.18 in 4 mi NW 1.2 mph - -   Mist
10:20 AM 46.4 °F - 42.8 °F 87% 30.18 in 4.3 mi Variable 1.2 mph - N/A   Mostly Cloudy
10:50 AM 48.2 °F - 42.8 °F 82% 30.15 in 3.7 mi Variable 2.3 mph - N/A   Mostly Cloudy
11:20 AM 50.0 °F - 44.6 °F 82% 30.15 in 3.7 mi Calm Calm - N/A   Mostly Cloudy
11:50 AM 50.0 °F - 44.6 °F 82% 30.15 in 3.7 mi Variable 1.2 mph - N/A   Mostly Cloudy
12:20 PM 51.8 °F - 46.4 °F 82% 30.15 in 3.7 mi Variable 2.3 mph - N/A   Mostly Cloudy
12:50 PM 51.8 °F - 46.4 °F 82% 30.15 in 3.7 mi NNW 3.5 mph - N/A   Mostly Cloudy
1:00 PM 52 °F - 46 °F 74% 30.15 in 4 mi NNE 3.5 mph - -   Mist
1:20 PM 51.8 °F - 48.2 °F 88% 30.15 in 3.7 mi NE 4.6 mph - N/A   Mostly Cloudy
1:50 PM 51.8 °F - 46.4 °F 82% 30.15 in 3.7 mi NE 4.6 mph - N/A   Mostly Cloudy
2:20 PM 51.8 °F - 46.4 °F 82% 30.12 in 3.7 mi NNE 5.8 mph - N/A   Mostly Cloudy
2:50 PM 53.6 °F - 48.2 °F 82% 30.12 in 3.7 mi NNE 3.5 mph - N/A   Mostly Cloudy
3:20 PM 53.6 °F - 46.4 °F 77% 30.12 in 3.7 mi Variable 2.3 mph - N/A   Mostly Cloudy
3:50 PM 51.8 °F - 46.4 °F 82% 30.12 in 3.7 mi North 4.6 mph - N/A   Mostly Cloudy
4:00 PM 53 °F - 46 °F 71% 30.12 in 4 mi NW 3.5 mph - -   Mist
4:20 PM 51.8 °F - 46.4 °F 82% 30.12 in 3.7 mi Variable 2.3 mph - N/A   Mostly Cloudy
4:50 PM 51.8 °F - 46.4 °F 82% 30.12 in 5.0 mi West 3.5 mph - N/A   Mostly Cloudy
5:20 PM 51.8 °F - 46.4 °F 82% 30.09 in 5.0 mi Variable 2.3 mph - N/A   Mostly Cloudy
5:50 PM 51.8 °F - 46.4 °F 82% 30.09 in 5.0 mi NW 3.5 mph - N/A   Mostly Cloudy
6:20 PM 51.8 °F - 46.4 °F 82% 30.09 in 5.0 mi NW 3.5 mph - N/A   Mostly Cloudy
6:50 PM 50.0 °F - 46.4 °F 87% 30.09 in 5.0 mi WNW 4.6 mph - N/A   Mostly Cloudy
7:00 PM 51 °F - 47 °F 82% 30.09 in 5 mi West 5.8 mph - -   Mist
7:20 PM 50.0 °F - 46.4 °F 87% 30.09 in 5.0 mi West 5.8 mph - N/A   Mostly Cloudy
7:50 PM 50.0 °F - 46.4 °F 87% 30.09 in 5.0 mi West 5.8 mph - N/A   Mostly Cloudy
8:20 PM 50.0 °F - 46.4 °F 87% 30.09 in 5.0 mi West 6.9 mph - N/A   Mostly Cloudy
8:50 PM 50.0 °F - 46.4 °F 87% 30.09 in 3.1 mi West 5.8 mph - N/A   Mostly Cloudy
9:20 PM 50.0 °F - 46.4 °F 87% 30.09 in 2.5 mi WNW 4.6 mph - N/A   Mostly Cloudy
9:50 PM 50.0 °F - 46.4 °F 87% 30.09 in 3.1 mi NW 5.8 mph - N/A   Mostly Cloudy
10:20 PM 50.0 °F - 46.4 °F 87% 30.09 in 3.1 mi NW 3.5 mph - N/A   Mostly Cloudy
10:50 PM 48.2 °F - 46.4 °F 93% 30.09 in 3.1 mi WNW 5.8 mph - N/A   Mostly Cloudy
11:20 PM 48.2 °F - 46.4 °F 93% 30.06 in 3.1 mi West 4.6 mph - N/A   Mostly Cloudy
11:50 PM 48.2 °F - 46.4 °F 93% 30.06 in 3.1 mi West 5.8 mph - N/A   Mostly Cloudy